Location: Krasnoyarskiy Pitomnik
(51.1333°N, 71.6167°E)
Time: 09:17:00
(UTC+00:00)

Cosmos 1023 Rocket - Pass Details

Date: 22 October 2021
Orbit: 735 x 773 km, 74.1° (Epoch: 06 December)

Event Time Altitude Azimuth Distance (km) Brightness Sun altitude
Rises 14:43:52 0° 335° (NNW) 3,213 8.3 -25.2°
Reaches altitude 10° 14:46:14 10° 335° (NNW) 2,290 7.4 -25.6°
Maximum altitude 14:51:27 89° 243° (WSW) 768 4.4 -26.4°
Enters shadow 14:51:33 87° 173° (S) 769 4.3 -26.4°
